Location: Centerville
(32.8776°N, 96.6203°W)
Time: 01:21:30
(UTC+00:00)

BREEZE-M DEB (TANK) - Pass Details

Date: 17 June 2021
Orbit: 312 x 15718 km, 49.5° (Epoch: 27 July)

Event Time Altitude Azimuth Distance (km) Brightness Sun altitude
Exits shadow 06:15:40 44° 83° (E) 1,619 4.5 -33.7°
Drops below altitude 10° 06:26:40 10° 52° (NE) 6,136 8.0 -33.7°
Sets 06:35:58 0° 50° (NE) 9,502 9.1 -33.7°
